H1 CPF 2 NER 2021 9 12 9 255 01 glonass135 H2 1600801 9135 41330 2021 9 12 0 0 0 2021 9 15 23 45 0 900 1 1 0 0 0 1 H9 10 0 59469 0.00000 0 -20334710.281 -12252812.340 -9258418.173 10 0 59469 900.00000 0 -19140202.329 -11655669.462 -12132636.525 10 0 59469 1800.00000 0 -17576447.743 -11062591.130 -14770493.692 10 0 59469 2700.00000 0 -15671501.360 -10529337.618 -17120666.922 10 0 59469 3600.00000 0 -13465580.880 -10106279.006 -19137477.892 10 0 59469 4500.00000 0 -11009584.072 -9836126.538 -20781781.492 10 0 59469 5400.00000 0 -8363168.720 -9752005.763 -22021722.758 10 0 59469 6300.00000 0 -5592476.033 -9875952.976 -22833347.773 10 0 59469 7200.00000 0 -2767593.200 -10217897.944 -23201057.486 10 0 59469 8100.00000 0 40138.873 -10775175.015 -23117896.849 10 0 59469 9000.00000 0 2760860.790 -11532582.243 -22585674.894 10 0 59469 9900.00000 0 5328859.510 -12462984.970 -21614914.673 10 0 59469 10800.00000 0 7685053.197 -13528437.526 -20224635.190 10 0 59469 11700.00000 0 9779194.293 -14681775.163 -18441970.458 10 0 59469 12600.00000 0 11571700.995 -15868608.790 -16301633.805 10 0 59469 13500.00000 0 13035043.137 -17029638.542 -13845238.206 10 0 59469 14400.00000 0 14154626.994 -18103189.101 -11120485.992 10 0 59469 15300.00000 0 14929144.318 -19027860.586 -8180243.644 10 0 59469 16200.00000 0 15370373.148 -19745184.203 -5081519.383 10 0 59469 17100.00000 0 15502440.585 -20202171.678 -1884362.980 10 0 59469 18000.00000 0 15360579.866 -20353652.001 1349291.232 10 0 59469 18900.00000 0 14989434.968 -20164297.810 4556816.270 10 0 59469 19800.00000 0 14440984.596 -19610256.670 7676096.842 10 0 59469 20700.00000 0 13772173.038 -18680318.817 10646723.285 10 0 59469 21600.00000 0 13042347.417 -17376572.129 13411152.701 10 0 59469 22500.00000 0 12310608.770 -15714516.208 15915815.472 10 0 59469 23400.00000 0 11633187.864 -13722629.817 18112146.378 10 0 59469 24300.00000 0 11060955.581 -11441408.349 19957521.046 10 0 59469 25200.00000 0 10637172.093 -8921909.799 21416080.181 10 0 59469 26100.00000 0 10395569.257 -6223868.026 22459426.018 10 0 59469 27000.00000 0 10358846.859 -3413449.809 23067177.743 10 0 59469 27900.00000 0 10537646.403 -560747.007 23227375.056 10 0 59469 28800.00000 0 10930046.390 2262893.720 22936721.674 10 0 59469 29700.00000 0 11521601.541 4987594.240 22200663.317 10 0 59469 30600.00000 0 12285925.795 7547609.421 21033297.668 10 0 59469 31500.00000 0 13185796.220 9883822.652 19457116.767 10 0 59469 32400.00000 0 14174732.981 11945969.007 17502585.470 10 0 59469 33300.00000 0 15198990.241 13694493.419 15207562.681 10 0 59469 34200.00000 0 16199875.136 15101965.979 12616575.413 10 0 59469 35100.00000 0 17116297.495 16153994.815 9779958.748 10 0 59469 36000.00000 0 17887442.641 16849597.888 6752877.800 10 0 59469 36900.00000 0 18455453.688 17201017.825 3594250.665 10 0 59469 37800.00000 0 18768008.790 17232987.647 365593.671 10 0 59469 38700.00000 0 18780682.803 16981478.774 -2870187.774 10 0 59469 39600.00000 0 18458991.726 16491984.963 -6050037.836 10 0 59469 40500.00000 0 17780031.704 15817415.937 -9111992.847 10 0 59469 41400.00000 0 16733641.702 15015691.288 -11996402.064 10 0 59469 42300.00000 0 15323039.494 14147138.105 -14647101.232 10 0 59469 43200.00000 0 13564903.255 13271804.072 -17012514.870 10 0 59469 44100.00000 0 11488894.851 12446801.124 -19046664.960 10 0 59469 45000.00000 0 9136644.841 11723793.026 -20710065.889 10 0 59469 45900.00000 0 6560242.019 11146733.649 -21970488.334 10 0 59469 46800.00000 0 3820291.089 10749951.445 -22803577.713 10 0 59469 47700.00000 0 983620.133 10556660.526 -23193316.024 10 0 59469 48600.00000 0 -1879266.241 10577960.154 -23132319.250 10 0 59469 49500.00000 0 -4696882.069 10812363.613 -22621965.819 10 0 59469 50400.00000 0 -7399491.607 11245874.888 -21672354.857 10 0 59469 51300.00000 0 -9921764.655 11852608.572 -20302096.247 10 0 59469 52200.00000 0 -12205246.445 12595925.669 -18537937.465 10 0 59469 53100.00000 0 -14200540.952 13430036.559 -16414235.190 10 0 59469 54000.00000 0 -15869118.733 14302003.023 -13972282.370 10 0 59469 54900.00000 0 -17184676.093 15154054.841 -11259503.923 10 0 59469 55800.00000 0 -18133990.965 15926123.466 -8328536.738 10 0 59469 56700.00000 0 -18717241.876 16558486.469 -5236211.534 10 0 59469 57600.00000 0 -18947778.478 16994411.914 -2042455.969 10 0 59469 58500.00000 0 -18851354.775 17182691.899 1190860.098 10 0 59469 59400.00000 0 -18464858.387 17079959.184 4401115.363 10 0 59469 60300.00000 0 -17834589.922 16652689.788 7526141.348 10 0 59469 61200.00000 0 -17014165.053 15878807.545 10505417.390 10 0 59469 62100.00000 0 -16062127.428 14748823.021 13281233.887 10 0 59469 63000.00000 0 -15039372.355 13266458.406 15799801.972 10 0 59469 63900.00000 0 -14006488.985 11448731.317 18012288.754 10 0 59469 64800.00000 0 -13021131.944 9325492.583 19875758.808 10 0 59469 65700.00000 0 -12135532.139 6938435.609 21354004.256 10 0 59469 66600.00000 0 -11394250.712 4339616.717 22418247.777 10 0 59469 67500.00000 0 -10832270.089 1589545.916 23047705.199 10 0 59469 68400.00000 0 -10473502.235 -1245074.656 23229996.706 10 0 59469 69300.00000 0 -10329777.090 -4093872.587 22961398.304 10 0 59469 70200.00000 0 -10400354.345 -6885484.408 22246927.996 10 0 59469 71100.00000 0 -10671980.079 -9550282.355 21100263.971 10 0 59469 72000.00000 0 -11119487.107 -12023036.245 19543495.125 10 0 59469 72900.00000 0 -11706915.069 -14245400.362 17606707.406 10 0 59469 73800.00000 0 -12389104.307 -16168121.907 15327412.535 10 0 59469 74700.00000 0 -13113697.302 -17752878.541 12749828.999 10 0 59469 75600.00000 0 -13823463.760 -18973667.817 9924028.249 10 0 59469 76500.00000 0 -14458851.201 -19817689.734 6904962.062 10 0 59469 77400.00000 0 -14960652.713 -20285684.807 3751389.912 10 0 59469 78300.00000 0 -15272677.985 -20391713.224 524727.557 10 0 59469 79200.00000 0 -15344313.110 -20162384.417 -2712159.949 10 0 59469 80100.00000 0 -15132859.041 -19635569.995 -5896195.989 10 0 59469 81000.00000 0 -14605547.888 -18858655.291 -8965335.327 10 0 59469 81900.00000 0 -13741149.918 -17886404.625 -11859786.481 10 0 59469 82800.00000 0 -12531101.833 -16778532.007 -14523188.125 10 0 59469 83700.00000 0 -10980107.462 -15597081.522 -16903715.392 10 0 59469 84600.00000 0 -9106184.728 -14403729.540 -18955093.638 10 0 59469 85500.00000 0 -6940156.567 -13257123.848 -20637499.407 10 0 59470 0.00000 0 -4524607.160 -12210372.702 -21918331.136 10 0 59470 900.00000 0 -1912347.039 -11308790.134 -22772835.161 10 0 59470 1800.00000 0 835547.516 -10587991.262 -23184575.439 10 0 59470 2700.00000 0 3652039.876 -10072418.573 -23145739.288 10 0 59470 3600.00000 0 6466686.228 -9774357.927 -22657274.280 10 0 59470 4500.00000 0 9208330.707 -9693485.488 -21728854.883 10 0 59470 5400.00000 0 11807830.897 -9816962.234 -20378680.708 10 0 59470 6300.00000 0 14200701.329 -10120070.575 -18633111.182 10 0 59470 7200.00000 0 16329566.243 -10567364.785 -16526144.513 10 0 59470 8100.00000 0 18146321.207 -11114285.665 -14098751.467 10 0 59470 9000.00000 0 19613915.408 -11709170.659 -11398077.105 10 0 59470 9900.00000 0 20707682.164 -12295574.364 -8476525.967 10 0 59470 10800.00000 0 21416164.091 -12814801.611 -5390748.254 10 0 59470 11700.00000 0 21741400.189 -13208546.593 -2200546.284 10 0 59470 12600.00000 0 21698664.340 -13421527.238 1032277.914 10 0 59470 13500.00000 0 21315667.404 -13404004.255 4245112.090 10 0 59470 14400.00000 0 20631257.196 -13114079.169 7375737.877 10 0 59470 15300.00000 0 19693671.273 -12519674.828 10363526.706 10 0 59470 16200.00000 0 18558415.931 -11600115.020 13150605.082 10 0 59470 17100.00000 0 17285860.092 -10347236.428 15682967.348 10 0 59470 18000.00000 0 15938644.502 -8765985.441 17911515.018 10 0 59470 18900.00000 0 14579014.144 -6874473.607 19793003.282 10 0 59470 19800.00000 0 13266184.920 -4703487.675 21290876.935 10 0 59470 20700.00000 0 12053854.212 -2295472.812 22375979.961 10 0 59470 21600.00000 0 10987959.021 296970.887 23027125.289 10 0 59470 22500.00000 0 10104775.193 3013018.299 23231513.664 10 0 59470 23400.00000 0 9429437.351 5785897.516 22984993.095 10 0 59470 24300.00000 0 8974941.766 8545423.768 22292153.240 10 0 59470 25200.00000 0 8741674.560 11220685.486 21166251.842 10 0 59470 26100.00000 0 8717485.836 13742772.003 19628973.428 10 0 59470 27000.00000 0 8878307.550 16047430.234 17710023.565 10 0 59470 27900.00000 0 9189290.072 18077539.991 15446565.102 10 0 59470 28800.00000 0 9606410.340 19785304.395 12882506.115 10 0 59470 29700.00000 0 10078484.270 21134063.417 10067652.358 10 0 59470 30600.00000 0 10549498.501 22099653.904 7056740.030 10 0 59470 31500.00000 0 10961162.490 22671258.220 3908367.589 10 0 59470 32400.00000 0 11255572.032 22851705.292 683847.707 10 0 59470 33300.00000 0 11377870.065 22657211.038 -2553997.513 10 0 59470 34200.00000 0 11278790.375 22116569.160 -5742073.278 10 0 59470 35100.00000 0 10916974.570 21269826.953 -8818255.335 10 0 59470 36000.00000 0 10260962.332 20166502.920 -11722613.891 10 0 59470 36900.00000 0 9290769.012 18863422.689 -14398592.807 10 0 59470 37800.00000 0 7998982.467 17422266.014 -16794119.872 10 0 59470 38700.00000 0 6391331.709 15906929.794 -18862625.642 10 0 59470 39600.00000 0 4486702.811 14380819.566 -20563950.429 10 0 59470 40500.00000 0 2316601.037 12904184.499 -21865121.860 10 0 59470 41400.00000 0 -75918.266 11531608.443 -22740988.306 10 0 59470 42300.00000 0 -2637805.016 10309762.441 -23174696.655 10 0 59470 43200.00000 0 -5307990.791 9275512.375 -23158006.263 10 0 59470 44100.00000 0 -8019703.691 8454459.952 -22691434.216 10 0 59470 45000.00000 0 -10703025.153 7859976.623 -21784230.337 10 0 59470 45900.00000 0 -13287582.665 7492769.024 -20454183.582 10 0 59470 46800.00000 0 -15705266.969 7340992.149 -18727264.568 10 0 59470 47700.00000 0 -17892861.626 7380903.565 -16637111.891 10 0 59470 48600.00000 0 -19794476.791 7578029.460 -14224372.712 10 0 59470 49500.00000 0 -21363687.393 7888792.092 -11535910.555 10 0 59470 50400.00000 0 -22565288.147 8262529.223 -8623895.767 10 0 59470 51300.00000 0 -23376593.892 8643819.902 -5544796.050 10 0 59470 52200.00000 0 -23788232.563 8975018.426 -2358286.293 10 0 59470 53100.00000 0 -23804398.995 9198889.771 873901.507 10 0 59470 54000.00000 0 -23442560.137 9261235.690 4089166.472 10 0 59470 54900.00000 0 -22732624.866 9113401.102 7225242.791 10 0 59470 55800.00000 0 -21715613.601 8714555.473 10221396.570 10 0 59470 56700.00000 0 -20441883.619 8033653.203 13019593.105 10 0 59470 57600.00000 0 -18968984.151 7050990.335 15565612.687 10 0 59470 58500.00000 0 -17359230.590 5759291.598 17810093.952 10 0 59470 59400.00000 0 -15677098.613 4164281.161 19709485.306 10 0 59470 60300.00000 0 -13986546.378 2284711.674 21226886.618 10 0 59470 61200.00000 0 -12348375.912 151848.579 22332765.289 10 0 59470 62100.00000 0 -10817743.195 -2191570.967 23005533.117 10 0 59470 63000.00000 0 -9441920.336 -4692863.558 23231972.766 10 0 59470 63900.00000 0 -8258403.045 -7291348.159 23007505.187 10 0 59470 64800.00000 0 -7293442.387 -9920639.091 22336292.193 10 0 59470 65700.00000 0 -6561062.422 -12511189.960 21231171.147 10 0 59470 66600.00000 0 -6062605.353 -14992984.163 19713421.834 10 0 59470 67500.00000 0 -5786823.809 -17298261.017 17812368.646 10 0 59470 68400.00000 0 -5710517.059 -19364164.418 15564824.364 10 0 59470 69300.00000 0 -5799685.003 -21135203.390 13014385.081 10 0 59470 70200.00000 0 -6011151.672 -22565421.228 10210588.952 10 0 59470 71100.00000 0 -6294589.794 -23620181.654 7207954.411 10 0 59470 72000.00000 0 -6594860.511 -24277496.029 4064916.469 10 0 59470 72900.00000 0 -6854568.419 -24528835.014 842682.076 10 0 59470 73800.00000 0 -7016722.477 -24379389.775 -2395972.429 10 0 59470 74700.00000 0 -7027388.445 -23847771.340 -5587937.056 10 0 59470 75600.00000 0 -6838218.596 -22965160.850 -8671011.647 10 0 59470 76500.00000 0 -6408749.570 -21773947.017 -11585131.305 10 0 59470 77400.00000 0 -5708369.289 -20325909.200 -14273548.318 10 0 59470 78300.00000 0 -4717868.096 -18680023.886 -16683946.328 10 0 59470 79200.00000 0 -3430507.295 -16899988.347 -18769464.105 10 0 59470 80100.00000 0 -1852559.175 -15051567.032 -20489608.457 10 0 59470 81000.00000 0 -3295.246 -13199873.352 -21811038.508 10 0 59470 81900.00000 0 2085577.007 -11406701.627 -22708206.531 10 0 59470 82800.00000 0 4371005.150 -9728021.352 -23163843.624 10 0 59470 83700.00000 0 6800164.745 -8211738.329 -23169281.914 10 0 59470 84600.00000 0 9312448.374 -6895815.358 -22724608.219 10 0 59470 85500.00000 0 11841787.530 -5806829.714 -21838647.449 10 0 59471 0.00000 0 14319210.813 -4959025.749 -20528777.259 10 0 59471 900.00000 0 16675532.233 -4353900.305 -18820578.292 10 0 59471 1800.00000 0 18844058.364 -3980335.510 -16747328.120 10 0 59471 2700.00000 0 20763202.147 -3815272.288 -14349348.451 10 0 59471 3600.00000 0 22378896.423 -3824893.213 -11673219.069 10 0 59471 4500.00000 0 23646707.052 -3966264.400 -8770873.543 10 0 59471 5400.00000 0 24533559.349 -4189365.851 -5698594.158 10 0 59471 6300.00000 0 25019006.962 -4439424.242 -2515925.178 10 0 59471 7200.00000 0 25095991.434 -4659449.571 715474.809 10 0 59471 8100.00000 0 24771061.735 -4792868.790 3933019.751 10 0 59471 9000.00000 0 24064045.345 -4786145.566 7074399.805 10 0 59471 9900.00000 0 23007185.093 -4591276.081 10078778.995 10 0 59471 10800.00000 0 21643777.975 -4168055.850 12887964.405 10 0 59471 11700.00000 0 20026372.649 -3486022.125 15447524.947 10 0 59471 12600.00000 0 18214600.449 -2525989.867 17707838.689 10 0 59471 13500.00000 0 16272729.818 -1281116.019 19625049.188 10 0 59471 14400.00000 0 14267045.311 242553.766 21161912.938 10 0 59471 15300.00000 0 12263159.633 2026080.423 22288521.911 10 0 59471 16200.00000 0 10323369.836 4038170.996 22982887.542 10 0 59471 17100.00000 0 8504167.106 6236242.187 23231374.781 10 0 59471 18000.00000 0 6854003.356 8567965.869 23028977.491 10 0 59471 18900.00000 0 5411407.419 10973234.578 22379429.192 10 0 59471 19800.00000 0 4203529.307 13386467.271 21295146.023 10 0 59471 20700.00000 0 3245173.571 15739160.999 19797001.809 10 0 59471 21600.00000 0 2538362.503 17962583.502 17913938.215 10 0 59471 22500.00000 0 2072447.883 19990495.142 15682416.098 10 0 59471 23400.00000 0 1824767.078 21761786.602 13145717.478 10 0 59471 24300.00000 0 1761816.092 23222921.679 10353110.605 10 0 59471 25200.00000 0 1840890.199 24330082.055 7358893.669 10 0 59471 26100.00000 0 2012122.547 25050922.935 4221335.613 10 0 59471 27000.00000 0 2220833.794 25365864.649 1001534.939 10 0 59471 27900.00000 0 2410092.157 25268864.797 -2237780.554 10 0 59471 28800.00000 0 2523373.899 24767637.598 -5433488.453 10 0 59471 29700.00000 0 2507209.710 23883310.799 -8523315.387 10 0 59471 30600.00000 0 2313702.909 22649534.630 -11447063.909 10 0 59471 31500.00000 0 1902810.929 21111080.873 -14147797.094 10 0 59471 32400.00000 0 1244291.780 19321991.930 -16572956.558 10 0 59471 33300.00000 0 319231.786 17343358.886 -18675391.170 10 0 59471 34200.00000 0 -878910.929 15240823.266 -20414275.863 10 0 59471 35100.00000 0 -2343791.843 13081908.437 -21755902.645 10 0 59471 36000.00000 0 -4056216.303 10933293.386 -22674328.813 10 0 59471 36900.00000 0 -5984725.078 8858143.461 -23151870.524 10 0 59471 37800.00000 0 -8086704.475 6913609.564 -23179433.201 10 0 59471 38700.00000 0 -10309974.338 5148599.535 -22756673.562 10 0 59471 39600.00000 0 -12594787.276 3601913.563 -21891991.371 10 0 59471 40500.00000 0 -14876155.593 2300819.673 -20602352.251 10 0 59471 41400.00000 0 -17086409.039 1260126.595 -18912945.946 10 0 59471 42300.00000 0 -19157876.999 481790.486 -16856687.479 10 0 59471 43200.00000 0 -21025583.997 -44930.495 -14473571.369 10 0 59471 44100.00000 0 -22629846.955 -342782.442 -11809891.667 10 0 59471 45000.00000 0 -23918666.822 -445313.842 -8917343.028 10 0 59471 45900.00000 0 -24849815.897 -395217.613 -5852020.071 10 0 59471 46800.00000 0 -25392534.790 -242287.927 -2673334.120 10 0 59471 47700.00000 0 -25528769.111 -41078.443 557132.025 10 0 59471 48600.00000 0 -25253895.095 151639.085 3776809.585 10 0 59471 49500.00000 0 -24576904.434 279508.716 6923347.195 10 0 59471 50400.00000 0 -23520040.968 289205.953 9935809.383 10 0 59471 51300.00000 0 -22117904.446 132925.090 12755847.631 10 0 59471 52200.00000 0 -20416058.530 -229366.349 15328822.072 10 0 59471 53100.00000 0 -18469200.608 -828001.022 17604852.707 10 0 59471 54000.00000 0 -16338968.974 -1682094.428 19539780.565 10 0 59471 54900.00000 0 -14091477.753 -2798501.387 21096020.807 10 0 59471 55800.00000 0 -11794681.221 -4171291.324 22243291.693 10 0 59471 56700.00000 0 -9515676.134 -5781766.027 22959205.600 10 0 59471 57600.00000 0 -7318053.278 -7599021.223 23229710.663 10 0 59471 58500.00000 0 -5259407.676 -9581030.716 23049374.123 10 0 59471 59400.00000 0 -3389110.429 -11676210.220 22421501.272 10 0 59471 60300.00000 0 -1746434.622 -13825397.888 21358086.709 10 0 59471 61200.00000 0 -359113.396 -15964170.812 19879597.621 10 0 59471 62100.00000 0 757609.509 -18025402.373 18014591.925 10 0 59471 63000.00000 0 1601396.786 -19941954.620 15799177.222 10 0 59471 63900.00000 0 2182684.332 -21649393.436 13276319.815 10 0 59471 64800.00000 0 2524003.155 -23088612.648 10495016.135 10 0 59471 65700.00000 0 2658784.954 -24208256.367 7509341.975 10 0 59471 66600.00000 0 2629701.950 -24966836.673 4377397.865 10 0 59471 67500.00000 0 2486611.788 -25334456.371 1160171.351 10 0 59471 68400.00000 0 2284195.460 -25294062.892 -2079660.936 10 0 59471 69300.00000 0 2079389.698 -24842179.381 -5278966.884 10 0 59471 70200.00000 0 1928724.302 -23989081.246 -8375402.716 10 0 59471 71100.00000 0 1885679.166 -22758410.303 -11308641.290 10 0 59471 72000.00000 0 1998174.823 -21186242.800 -14021559.339 10 0 59471 72900.00000 0 2306304.564 -19319651.031 -16461359.267 10 0 59471 73800.00000 0 2840405.567 -17214819.821 -18580602.722 10 0 59471 74700.00000 0 3619551.653 -14934798.085 -20338135.201 10 0 59471 75600.00000 0 4650531.994 -12546980.779 -21699883.686 10 0 59471 76500.00000 0 5927359.162 -10120427.568 -22639512.176 10 0 59471 77400.00000 0 7431327.165 -7723130.958 -23138923.083 10 0 59471 78300.00000 0 9131616.826 -5419348.062 -23188595.829 10 0 59471 79200.00000 0 10986422.757 -3267106.831 -22787757.251 10 0 59471 80100.00000 0 12944554.349 -1315989.782 -21944381.743 10 0 59471 81000.00000 0 14947443.515 394713.982 -20675022.286 10 0 59471 81900.00000 0 16931475.214 1837413.464 -19004476.639 10 0 59471 82800.00000 0 18830543.452 2997120.778 -16965295.940 10 0 59471 83700.00000 0 20578726.373 3871821.205 -14597145.786 10 0 59471 84600.00000 0 22112969.321 4472295.250 -11946032.421 10 0 59471 85500.00000 0 23375664.476 4821402.341 -9063409.166 10 0 59472 0.00000 0 24317020.217 4952858.179 -6005180.324 10 0 59472 900.00000 0 24897121.778 4909558.599 -2830621.165 10 0 59472 1800.00000 0 25087598.760 4741521.383 398764.380 10 0 59472 2700.00000 0 24872828.849 4503533.443 3620428.025 10 0 59472 3600.00000 0 24250629.777 4252602.508 6771980.073 10 0 59472 4500.00000 0 23232409.453 4045320.761 9792388.615 10 0 59472 5400.00000 0 21842768.598 3935251.206 12623152.395 10 0 59472 6300.00000 0 20118571.868 3970446.629 15209425.357 10 0 59472 7200.00000 0 18107525.646 4191205.426 17501071.744 10 0 59472 8100.00000 0 15866320.841 4628158.781 19453632.046 10 0 59472 9000.00000 0 13458416.877 5300770.023 21029181.764 10 0 59472 9900.00000 0 10951557.903 6216309.946 22197066.774 10 0 59472 10800.00000 0 8415123.173 7369352.366 22934501.379 10 0 59472 11700.00000 0 5917420.462 8741812.704 23227017.495 10 0 59472 12600.00000 0 3523033.979 10303529.961 23068755.924 10 0 59472 13500.00000 0 1290336.082 12013369.930 22462593.481 10 0 59472 14400.00000 0 -730734.334 13820805.756 21420102.519 10 0 59472 15300.00000 0 -2500534.545 15667911.767 19961342.435 10 0 59472 16200.00000 0 -3991144.254 17491688.946 18114485.843 10 0 59472 17100.00000 0 -5187295.722 19226625.993 15915285.172 10 0 59472 18000.00000 0 -6086768.545 20807389.307 13406388.807 10 0 59472 18900.00000 0 -6700232.356 22171529.208 10636518.944 10 0 59472 19800.00000 0 -7050543.964 23262088.209 7659526.401 10 0 59472 20700.00000 0 -7171528.669 24030000.675 4533340.609 10 0 59472 21600.00000 0 -7106297.701 24436181.509 1318835.413 10 0 59472 22500.00000 0 -6905173.782 24453214.376 -1921366.506 10 0 59472 23400.00000 0 -6623313.824 24066566.778 -5124126.090 10 0 59472 24300.00000 0 -6318131.058 23275279.544 -8227031.846 10 0 59472 25200.00000 0 -6046627.576 22092100.706 -11169629.505 10 0 59472 26100.00000 0 -5862752.182 20543057.702 -13894611.850 10 0 59472 27000.00000 0 -5814897.187 18666485.935 -16348944.249 10 0 59472 27900.00000 0 -5943641.646 16511554.916 -18484903.061 10 0 59472 28800.00000 0 -6279837.601 14136354.640 -20261006.030 10 0 59472 29700.00000 0 -6843120.926 11605623.281 -21642816.539 10 0 59472 30600.00000 0 -7640909.928 8988212.100 -22603606.435 10 0 59472 31500.00000 0 -8667933.788 6354394.203 -23124865.239 10 0 59472 32400.00000 0 -9906310.365 3773129.681 -23196646.897 10 0 59472 33300.00000 0 -11326169.581 1309400.874 -22817748.518 10 0 59472 34200.00000 0 -12886795.596 -978271.911 -21995718.863 10 0 59472 35100.00000 0 -14538239.408 -3040032.136 -20746697.590 10 0 59472 36000.00000 0 -16223333.974 -4836516.313 -19095089.355 10 0 59472 36900.00000 0 -17880027.275 -6340236.745 -17073079.897 10 0 59472 37800.00000 0 -19443935.810 -7536462.431 -14720004.043 10 0 59472 38700.00000 0 -20851011.970 -8423563.903 -12081578.128 10 0 59472 39600.00000 0 -22040214.141 -9012809.842 -9209011.845 10 0 59472 40500.00000 0 -22956068.464 -9327626.214 -6158016.627 10 0 59472 41400.00000 0 -23551015.703 -9402350.782 -2987729.464 10 0 59472 42300.00000 0 -23787445.659 -9280536.626 240427.265 10 0 59472 43200.00000 0 -23639334.534 -9012876.966 3463928.371 10 0 59472 44100.00000 0 -23093417.119 -8654839.082 6620348.480 10 0 59472 45000.00000 0 -22149844.899 -8264107.051 9648561.927 10 0 59472 45900.00000 0 -20822302.424 -7897940.855 12489917.395 10 0 59472 46800.00000 0 -19137576.604 -7610562.742 15089365.260 10 0 59472 47700.00000 0 -17134596.148 -7450680.533 17396516.476 10 0 59472 48600.00000 0 -14862980.127 -7459251.842 19366613.244 10 0 59472 49500.00000 0 -12381154.766 -7667583.243 20961393.344 10 0 59472 50400.00000 0 -9754115.405 -8095844.583 22149831.835 10 0 59472 51300.00000 0 -7050925.097 -8752061.558 22908746.086 10 0 59472 52200.00000 0 -4342052.199 -9631630.036 23223252.498 10 0 59472 53100.00000 0 -1696656.237 -10717373.983 23087065.711 10 0 59472 54000.00000 0 820066.458 -11980146.485 22502633.920 10 0 59472 54900.00000 0 3149367.954 -13379950.679 21481106.721 10 0 59472 55800.00000 0 5241161.865 -14867535.623 20042134.873 10 0 59472 56700.00000 0 7055872.611 -16386402.027 18213504.507 10 0 59472 57600.00000 0 8565843.602 -17875135.178 16030611.405 10 0 59472 58500.00000 0 9756245.292 -19269968.043 13535784.251 10 0 59472 59400.00000 0 10625444.791 -20507467.199 10777468.937 10 0 59472 60300.00000 0 11184821.405 -21527228.369 7809288.975 10 0 59472 61200.00000 0 11458035.782 -22274467.197 4689000.135 10 0 59472 62100.00000 0 11479783.812 -22702394.807 1477359.830 10 0 59472 63000.00000 0 11294088.600 -22774276.398 -1763066.046 10 0 59472 63900.00000 0 10952203.717 -22465084.321 -4969134.378 10 0 59472 64800.00000 0 10510217.939 -21762674.342 -8078368.833 10 0 59472 65700.00000 0 10026464.532 -20668434.137 -11030190.838 10 0 59472 66600.00000 0 9558846.594 -19197375.799 -13767111.951 10 0 59472 67500.00000 0 9162193.467 -17377667.992 -16235863.104 10 0 59472 68400.00000 0 8885761.642 -15249627.397 -18388437.765 10 0 59472 69300.00000 0 8770987.059 -12864212.206 -20183028.055 10 0 59472 70200.00000 0 8849584.539 -10281081.409 -21584835.551 10 0 59472 71100.00000 0 9142074.904 -7566301.727 -22566741.339 10 0 59472 72000.00000 0 9656801.710 -4789798.685 -23109822.986 10 0 59472 72900.00000 0 10389478.567 -2022658.448 -23203709.424 10 0 59472 73800.00000 0 11323285.324 665607.249 -22846768.029 10 0 59472 74700.00000 0 12429508.231 3209719.599 -22046121.484 10 0 59472 75600.00000 0 13668696.385 5551105.164 -20817495.270 10 0 59472 76500.00000 0 14992285.201 7640080.817 -19184899.719 10 0 59472 77400.00000 0 16344618.328 9437662.157 -17180153.621 10 0 59472 78300.00000 0 17665282.947 10916922.225 -14842259.163 10 0 59472 79200.00000 0 18891660.585 12063846.312 -12216640.596 10 0 59472 80100.00000 0 19961586.699 12877649.414 -9354261.538 10 0 59472 81000.00000 0 20816007.962 13370545.381 -6310637.929 10 0 59472 81900.00000 0 21401526.368 13566979.374 -3144765.458 10 0 59472 82800.00000 0 21672724.022 13502357.393 82018.001 10 0 59472 83700.00000 0 21594171.661 13221327.435 3307213.403 10 0 59472 84600.00000 0 21142037.055 12775685.237 6468362.693 10 0 59472 85500.00000 0 20305226.028 12221992.999 9504249.317 99